sat.trackr.live / text

‹ back to catalog

STARLINK-33993

NORAD 63949 · 2025-098Z

PAYLOAD ACTIVE UNKNOWN

§ Identity

Operator
Country
US
Launch date
2025-05-13
Launch site
AFWTR
Launch vehicle
Mass (kg)
RCS (m²)

Purposes: comms

External: N2YO · Heavens-Above · Gunter

§ Orbital elements

Epoch: 2026-09-20T21:57:11.471904Z

Period
94.14 min
Inclination
69.9999°
Eccentricity
0.0003093
Mean motion
15.29601821 rev/d
Perigee alt
474.9 km
Apogee alt
479.1 km
Semi-major
6,855.1 km
B*
5.6255e-4
RAAN
139.8855°
Arg perigee
273.0412°
Mean anomaly
87.0409°
Rev number
7,584

§ Raw data

STARLINK-339931 63949U 25098Z   26263.91471611  .00016089  00000+0  56255-3 0  99932 63949  69.9999 139.8855 0003093 273.0412  87.0409 15.29601821 75844

JSON: /api/v1/satellites/63949 · /tle

For live sub-satellite position, see the globe view (requires WebGL).

§ Visibility from observer

Set your observer location to see the next 7 days of passes ≥ 10°. The values pass through the URL so the page stays shareable.

No JS? Fill the form by hand. The geolocation button needs JavaScript.